Lapse_Rate
8.5 8.8 8.9 9.0 9.0 9.6 9.7 9.3 9.5 9.7 9.4 9.2 9.1 8.9 8.9 8.7 8.4 8.3 8.1 8.1 7.8 7.7 7.6 7.4 7.2 7.0 7.1 7.3 7.7 8.2 8.1 7.7
8.1 8.3 8.6 8.6 9.4 9.3 9.0 9.7 9.5 9.7 9.4 9.7 9.0 8.9 8.8 8.6 8.5 8.3 8.2 8.3 8.1 7.9 7.6 7.5 7.5 7.4 7.4 7.2 7.0 7.4 7.8 7.5
7.8 7.9 9.1 8.4 8.3 8.7 9.5 9.6 9.9 9.9 9.8 9.7 9.1 8.9 8.6 8.6 8.5 8.2 8.2 8.6 8.6 8.5 8.1 7.9 7.7 7.8 7.7 7.5 7.2 7.1 7.4 7.6
8.0 8.4 8.4 8.7 9.0 9.3 9.3 9.4 9.1 9.6 9.7 9.4 9.1 8.9 8.7 8.5 8.3 8.5 8.6 8.7 8.8 8.8 8.6 8.3 8.1 8.0 7.9 7.8 7.4 7.2 7.4 7.4
8.7 9.0 7.6 7.8 8.2 8.4 9.5 9.6 9.7 9.7 9.7 9.1 9.0 8.8 8.8 8.5 8.4 8.8 8.5 8.7 8.8 8.7 8.7 8.6 8.2 7.9 7.8 7.7 7.7 7.4 7.3 7.4
9.1 9.0 8.8 8.2 8.4 8.5 9.2 9.6 9.6 9.6 9.6 9.5 8.9 8.7 8.7 8.4 8.5 8.7 8.7 8.6 8.6 8.6 8.6 8.6 8.4 7.9 7.5 7.4 7.3 7.2 7.2 7.3
8.4 9.1 9.2 9.5 8.9 8.8 8.8 9.3 9.7 9.7 9.6 9.6 9.5 8.8 8.5 8.4 8.4 8.7 8.6 8.7 8.6 8.5 8.5 8.5 8.4 8.3 7.9 7.5 7.3 7.3 7.3 7.3
8.2 8.3 8.4 8.5 8.8 8.9 8.8 9.0 9.5 9.6 9.7 9.6 9.7 9.3 8.5 8.8 8.7 8.7 8.6 8.8 8.7 8.5 8.3 8.3 8.2 8.2 8.0 8.0 7.8 7.6 7.5 7.4
8.2 8.2 8.6 8.8 8.2 9.1 8.9 8.8 8.9 9.4 9.6 9.7 9.7 9.2 8.9 8.9 8.8 8.9 8.8 8.9 8.7 8.4 8.3 8.2 8.2 8.1 8.1 8.0 7.7 7.6 7.5 7.4
8.4 9.2 9.7 8.1 9.2 9.1 9.0 9.1 9.2 9.3 9.5 9.6 9.4 9.3 9.1 8.7 8.4 9.0 8.8 8.7 8.6 8.4 8.3 8.0 7.8 7.6 7.4 7.5 7.4 7.3 7.2 7.1
8.7 9.5 8.8 9.3 9.0 9.1 9.0 9.1 9.2 9.2 9.2 9.4 9.4 9.1 9.3 9.3 8.5 8.9 8.8 8.7 8.5 8.3 8.2 7.7 7.4 7.1 7.1 7.1 7.0 6.8 6.9 7.0
9.1 9.6 9.9 9.4 9.6 9.1 9.2 9.5 9.7 9.4 9.3 9.2 9.1 8.9 9.3 9.2 9.5 8.2 8.2 8.4 8.3 8.2 8.1 7.6 7.3 7.3 7.3 7.2 7.3 7.1 6.9 6.9
9.1 9.3 9.6 9.4 9.2 9.5 9.1 9.5 9.7 9.4 9.4 9.1 9.0 8.6 8.8 9.0 9.1 8.1 7.5 8.0 8.3 8.1 7.9 7.6 7.2 7.2 7.2 7.2 7.3 7.3 7.2 6.8
9.2 9.5 9.6 9.3 9.4 9.2 9.5 9.6 9.5 9.5 9.4 9.2 9.1 8.9 8.7 8.5 8.8 8.3 8.8 8.6 8.3 8.2 7.9 7.6 7.4 7.4 7.5 7.3 6.9 6.8 6.7 6.6
9.2 9.2 9.1 9.2 9.2 9.3 9.3 9.4 9.4 9.4 9.4 9.3 9.2 9.0 8.9 8.5 8.3 8.5 8.3 8.7 8.5 8.1 7.7 7.5 7.4 7.6 7.4 7.0 7.3 7.0 6.8 6.7
9.0 9.0 9.0 8.9 9.1 9.1 9.2 9.2 9.2 9.2 9.2 9.3 9.3 9.3 9.2 8.7 8.2 8.4 7.9 7.9 7.9 7.4 7.6 7.6 7.7 7.2 6.8 7.0 7.0 6.3 6.3 6.7
8.9 8.8 8.7 8.7 8.9 9.0 9.1 9.1 9.1 9.1 9.2 9.2 9.2 9.2 8.6 8.5 8.1 7.5 7.5 7.6 7.6 7.7 7.6 7.2 7.0 6.8 6.5 6.5 6.5 7.1 6.6 6.3
8.7 8.4 8.3 8.3 8.3 8.3 8.2 8.4 8.5 8.4 8.6 8.4 8.1 8.2 7.8 7.4 7.1 7.0 7.1 7.3 7.5 7.4 7.3 7.2 6.9 6.7 7.2 7.3 6.8 6.8 6.6 6.4
8.5 8.4 8.3 8.1 8.0 7.9 7.9 7.9 7.9 7.9 8.0 7.9 7.8 7.7 7.7 7.6 7.7 8.1 8.2 8.0 7.6 7.0 6.7 6.6 6.7 6.9 6.5 6.5 6.3 6.6 6.4 6.4
Wind_Speed
12 12 12 9 12 9 13 6 8 3 4 7 6 6 8 12 11 8 6 5 5 8 13 14 15 16 17 17 17 17 17 13
11 8 5 11 5 9 10 10 9 5 5 2 12 12 13 13 13 9 6 4 5 6 9 12 16 15 16 15 16 14 13 12
11 13 17 9 12 11 11 10 9 8 8 6 12 16 16 15 11 10 5 3 3 3 6 9 11 13 14 14 15 10 10 10
18 14 7 13 18 20 11 16 11 10 7 4 9 15 15 16 13 10 6 5 5 5 7 9 10 10 11 11 11 11 10 8
21 15 8 11 15 15 18 18 15 12 11 6 9 13 13 16 15 11 9 7 7 8 8 9 9 9 9 9 9 8 9 8
15 18 19 19 16 17 19 13 14 13 16 11 10 15 16 17 17 15 11 10 8 9 9 8 8 8 7 7 6 6 7 7
20 20 11 11 21 20 19 20 17 14 17 14 9 16 18 17 17 15 14 13 11 8 9 8 8 7 6 6 6 4 3 5
19 18 19 16 17 14 15 17 15 12 12 11 4 11 18 20 20 18 16 14 14 11 10 10 9 8 6 5 4 5 6 5
19 19 22 21 24 19 16 15 16 15 11 12 10 12 20 23 23 22 19 17 16 14 12 10 10 9 8 7 6 6 6 5
16 18 23 16 21 22 22 19 18 14 11 11 13 15 16 22 24 24 22 19 17 15 12 11 9 9 7 7 7 7 6 4
13 14 14 24 8 12 15 15 17 17 13 13 14 10 16 18 26 26 24 20 17 15 14 13 12 11 10 10 9 7 7 7
10 17 21 18 16 16 15 15 14 16 14 10 9 11 12 18 24 25 23 20 17 17 16 15 14 13 12 11 10 8 6 6
11 11 14 5 7 10 13 7 10 13 11 10 11 13 11 14 19 19 19 17 17 18 15 14 13 12 10 9 9 8 7 6
14 12 14 2 7 11 3 4 4 4 6 7 7 3 1 6 14 16 18 19 17 15 13 13 12 11 11 9 9 7 5 3
9 11 4 0 6 7 8 8 7 7 5 5 5 7 7 11 16 17 17 17 16 15 14 11 9 8 10 10 9 7 6 4
5 4 2 2 3 5 5 6 3 2 2 5 7 10 13 13 14 14 14 15 14 13 13 12 11 9 8 7 5 4 3 4
4 6 5 6 5 5 6 7 8 7 6 7 11 12 15 16 16 15 13 11 10 10 9 8 9 7 5 4 2 3 5 5
5 5 4 6 6 4 9 12 13 15 14 13 14 14 15 13 11 11 11 10 9 8 9 9 8 5 5 6 3 2 5 7
4 3 4 5 5 7 10 10 12 13 13 14 12 13 12 10 8 7 7 7 7 8 9 7 5 5 4 3 1 3 7 8
Wind_Direction
217 221 229 198 235 273 284 225 268 169 195 211 207 180 169 168 152 134 121 152 184 198 186 194 199 198 199 196 202 207 204 210
170 190 197 264 266 212 233 267 260 201 253 150 175 165 164 165 165 144 139 171 188 187 187 192 202 204 200 201 208 203 212 201
173 206 214 189 223 240 291 241 259 235 224 130 177 172 171 172 159 153 156 167 217 215 194 195 198 201 201 203 216 194 199 199
207 222 255 270 225 226 222 224 245 293 293 118 174 177 181 167 156 146 150 151 145 139 161 178 190 190 194 204 218 202 180 177
230 178 196 236 226 244 250 242 214 235 233 127 163 180 186 168 160 151 152 151 145 143 148 162 168 179 190 196 211 205 183 213
232 225 214 210 224 218 230 231 228 215 261 154 183 187 185 178 167 157 160 151 158 147 139 145 157 165 185 193 199 214 200 232
231 251 208 225 222 208 223 237 234 218 225 255 190 201 188 182 175 168 166 160 152 158 149 154 157 161 181 197 187 221 234 260
229 235 249 235 243 216 220 247 248 248 256 222 223 197 185 194 185 183 178 173 158 158 164 167 167 169 176 197 204 207 206 228
239 227 241 229 233 233 228 224 229 221 224 243 236 216 202 201 189 190 186 182 172 166 167 162 165 171 184 184 182 182 185 189
233 230 236 238 223 215 226 219 223 242 257 263 254 244 228 213 197 193 188 184 178 170 159 157 159 161 157 153 154 164 152 132
234 230 242 232 177 203 223 222 221 220 236 261 269 263 256 223 204 199 186 182 181 166 155 150 149 150 153 153 149 160 155 145
201 240 231 240 201 209 217 235 206 202 231 265 275 248 250 213 209 196 185 181 171 150 154 151 155 158 160 157 155 157 148 136
208 225 236 66 101 158 202 231 250 201 222 245 250 248 327 289 194 185 177 155 156 157 157 153 162 156 161 157 156 145 150 156
231 223 237 89 129 209 4 339 2 301 288 251 247 214 282 127 161 159 151 155 160 152 143 148 158 165 165 161 131 143 155 190
222 220 92 215 282 302 307 300 308 309 301 249 181 170 158 156 155 162 160 156 152 147 143 144 145 155 156 152 158 168 181 206
204 82 81 349 305 291 282 291 304 282 145 154 154 144 135 136 139 146 146 139 136 134 134 145 147 153 145 148 155 186 240 269
101 109 113 75 69 77 97 110 105 87 98 113 129 131 131 136 137 135 128 126 128 139 143 140 139 138 115 119 169 188 271 284
76 79 52 92 91 88 91 97 107 108 102 107 117 121 121 117 119 121 123 127 139 147 156 144 134 138 160 143 181 252 271 280
82 86 71 100 101 103 107 107 111 104 108 114 116 122 119 111 99 79 113 116 128 131 132 135 135 151 166 195 180 312 298 297